Flag for Costa Rica Weather past 2 weeks in Liberia, Costa Rica

Now
68 °F

Clear.


Feels Like: 68 °F
Forecast: 74 / 95 °F
Wind: 6 mph from East

Location: Juan Santamaria

Current Time: Apr 21, 2015 at 3:24:49 AM

Latest Report: Apr 21, 2015 at 3:00 AM


Visibility: 10 mi

Pressure: 29.98 "Hg

Humidity: 69%

Dew point: 57 °F

Location of LiberiaLocation

Historic Weather in Liberia — Graph

°F

Liberia temperature yesterday

Maximum temperature yesterday: 86 °F (at 11:00 AM)
Minimum temperature yesterday: 70 °F (at 12:00 AM)
Average temperature yesterday: 76 °F

Past Weeks' High & Low Weather Summary

 TemperatureHumidityPressure
High88 °F (Apr 19, 3:00 PM)88% (Apr 20, 9:00 PM)30.09 "Hg (Apr 20, 9:00 PM)
Low66 °F (Apr 15, 1:00 AM)29% (Apr 6, 1:00 PM)29.89 "Hg (Apr 8, 4:00 PM)
Average75 °F60%29.99 "Hg
* Reported Apr 6 2:00 AM — Apr 21 2:00 AM, Liberia, Weather by CustomWeather, © 2015

Note: Actual official high and low records may vary slightly from our data, if they occured in-between our weather recording intervals... More about our weather records

Advertising

Liberia weather history for previous 24 hours

 ConditionsComfort  
Time TempWeatherWind HumidityBarometerVisibility
2:00 AM
Tue, Apr 21
68 °FClear.6 mph73%29.98 "Hg10 mi
1:00 AM68 °FClear.7 mph73%29.98 "Hg10 mi
12:00 AM72 °FClear.7 mph69%30.00 "Hg10 mi
11:00 PM
Mon, Apr 20
70 °FClear.6 mph73%30.02 "Hg10 mi
10:00 PM70 °FFog.2 mph88%30.02 "HgN/A
9:00 PM70 °FPassing clouds.2 mph88%30.00 "HgN/A
8:00 PM72 °FPassing clouds.3 mph83%29.98 "HgN/A
7:00 PM73 °FPassing clouds.8 mph83%29.96 "HgN/A
6:00 PM75 °FPassing clouds.8 mph74%29.94 "HgN/A
5:00 PM79 °FBroken clouds.10 mph65%29.91 "HgN/A
4:00 PM81 °FBroken clouds.12 mph62%29.91 "HgN/A
3:00 PM82 °FBroken clouds.13 mph55%29.91 "HgN/A
2:00 PM86 °FBroken clouds.10 mph49%N/AN/A
1:00 PM84 °FBroken clouds.9 mph51%29.96 "HgN/A
12:00 PM82 °FBroken clouds.12 mph55%30.00 "HgN/A
11:00 AM86 °FScattered clouds.6 mph35%30.02 "HgN/A
10:00 AM84 °FPartly sunny.7 mph40%30.03 "HgN/A
9:00 AM81 °FPartly sunny.9 mph45%30.04 "HgN/A
8:00 AM79 °FPartly sunny.14 mph51%30.03 "HgN/A
7:00 AM75 °FScattered clouds.8 mph61%30.01 "HgN/A
6:00 AM70 °FScattered clouds.7 mph78%29.98 "HgN/A
5:00 AM70 °FPassing clouds.8 mph73%29.97 "HgN/A
4:00 AM72 °FPassing clouds.6 mph69%29.97 "HgN/A
3:00 AMN/APassing clouds.7 mphN/AN/AN/A
Weather by CustomWeather, © 2015

See weather overviewHow to use our weather pages